STARLINK-1627 (46168 NORAD) Tracking and Keplerian Element Data

This shows tracking and keplerian element data for the satellite.

Feedback or suggestion? Click here.




ElementValue
Catalog46168
NameSTARLINK-1627
Epoch Orbit186
Epoch Day336.91667824
Epoch Year2020
RAAN284.2491
Inclination52.9995
Eccentricity0.0003669
Argument of Perigee10.6096
Mean Anonmoly233.1246
Mean Motion15.6275526
Decay Rate-0.00028744
L11 46168U 20057BD 20336.91667824 -.00028744 00000-0 -30902-3 0 9990
L22 46168 52.9995 284.2491 0003669 10.6096 233.1246 15.62755260 1867

Live tracking and technical data element details for STARLINK-1627 (NORAD 46168). STARLINK-1627 can be tracked NOW for your location showing map with azimuth and elevation plus other details from your city location.

Track the satellite on the map from your city or location and see movement details for azimuth, elevation, latitude, longitude, range, height, and movement on the map or in text.







IsCatalogInMostPopularTable: catalog: 46168, numindb: 18
Update: records affected: 1



GetName: 46168 STARLINK-1627

Hit Count: updated at: Wed, 02 Dec 2020 19:04:11 GMT